[[{"header":{"parameterUnit":"m.s-1","parameterCategory":1,"la1":30.2991,"la2":30.254,"lo1":-89.0895,"lo2":-89.0444,"dy":0.0017,"dx":0.0017,"nx":28,"ny":28,"refTime":"2023-04-17T15:00:00:Z","depth":0,"parameterNumber":2,"parameterNumberName":"U-component_of_WINDS"},"data":[0,0,0,0,0,0,0,0,0,0,0,0,0,0,0,0,0,0,0,0,0,0,0,0,0,0,0,0,0,0,0,0,0,0,0,0,0,0,0,0,0,0,0,0,0,0,0,0,0,0,0,0,0,0,0,0,0,0,1.8488,1.8489,0,1.8509,1.8509,1.8509,1.8513,1.8513,1.8513,1.8513,1.8532,1.8533,1.8533,0,0,0,0,0,0,0,0,0,0,0,0,0,1.8452,1.8452,1.8488,1.8489,1.8489,1.8509,1.8509,1.8509,1.8513,1.8513,1.8513,1.8513,1.8532,1.8533,1.8533,0,0,0,0,0,0,0,0,0,0,0,0,0,1.8469,1.8452,1.8488,1.8493,1.8494,1.8509,1.8509,1.8509,1.8513,1.8513,1.8513,1.8513,1.8532,1.8533,1.8534,1.8544,0,0,1.8537,1.8537,0,0,0,0,0,0,0,0,1.8468,1.8471,1.8492,1.8493,1.8494,1.8508,1.8503,1.8521,1.8513,1.8506,1.8513,1.8512,1.8524,1.8526,1.853,1.8545,1.8546,1.8537,1.8537,1.8538,1.8538,0,0,0,0,0,0,0,1.8467,1.847,1.8496,1.8492,1.8493,1.8494,1.8496,1.8507,1.8516,1.8506,1.8507,1.8509,1.8525,1.8529,1.8531,1.8546,1.8537,1.8538,1.8538,1.8539,1.8572,1.8572,0,0,0,0,0,0,1.8465,1.8469,1.8496,1.8497,1.848,1.8495,1.8497,1.8504,1.8516,1.8518,1.8509,1.8509,1.8528,1.8529,1.8531,1.8545,1.8538,1.8539,1.8539,1.8572,1.8572,1.8573,0,0,0,0,0,0,1.8464,1.8467,1.8495,1.8483,1.8487,1.8496,1.8503,1.8504,1.8509,1.8518,1.852,1.8512,1.8527,1.853,1.8541,1.8546,1.8539,1.854,1.8572,1.8572,1.8572,1.8572,0,0,0,0,0,0,1.8463,1.8467,1.8472,1.8483,1.8487,1.8505,1.8503,1.8505,1.8511,1.8511,1.8521,1.8523,1.8527,1.854,1.8542,1.8547,1.8541,1.8571,1.8572,1.8572,1.8572,1.8573,1.8574,0,0,0,0,0,1.8462,1.847,1.8472,1.8475,1.8493,1.8505,1.8507,1.8513,1.8511,1.8515,1.8522,1.8523,1.8545,1.8541,1.8544,1.8549,1.8571,1.8572,1.8572,1.8572,1.8573,1.8574,0,0,0,0,0,0,1.8458,1.8472,1.8474,1.8486,1.8495,1.8506,1.8511,1.8514,1.8522,1.8522,1.8528,1.853,1.8541,1.8546,1.8542,1.856,1.8558,1.8559,1.8557,1.8558,1.8558,1.8556,1.8542,0,0,0,0,0,1.8459,1.8468,1.8479,1.8489,1.8494,1.8502,1.8507,1.8511,1.852,1.8523,1.853,1.8538,1.8547,1.8553,1.8561,1.8573,1.8575,1.8578,1.8579,1.8579,1.858,1.8587,1.8588,1.8575,1.8575,1.8575,0,0,1.846,1.8469,1.8474,1.8489,1.8496,1.8505,1.8505,1.8514,1.8521,1.8524,1.8536,1.8541,1.8551,1.8562,1.8568,1.8567,1.8585,1.858,1.8581,1.8581,1.8588,1.8589,1.859,1.8575,1.8575,1.8575,0,0,1.8467,1.8475,1.8484,1.8491,1.8502,1.8508,1.851,1.8522,1.8525,1.8537,1.854,1.8548,1.8563,1.857,1.8575,1.8586,1.8588,1.8589,1.8592,1.8599,1.86,1.8601,1.8605,1.8606,1.859,1.859,1.859,0,1.8467,1.8482,1.8488,1.8498,1.8505,1.8509,1.8518,1.8525,1.8538,1.8542,1.8541,1.8561,1.8567,1.8581,1.8584,1.8588,1.859,1.8587,1.86,1.8601,1.8602,1.8605,1.8607,1.859,1.859,1.859,1.859,0,1.8481,1.8491,1.8497,1.8511,1.8518,1.8527,1.8535,1.8542,1.8545,1.855,1.8563,1.8571,1.8582,1.8585,1.8588,1.8599,1.8598,1.8598,1.8596,1.8603,1.8606,1.8608,1.859,1.859,1.859,1.859,0,0,1.8486,1.8503,1.8505,1.8512,1.8525,1.8532,1.8542,1.8553,1.8558,1.8568,1.8576,1.8589,1.8589,1.8595,1.8599,1.8605,1.8613,1.8605,1.8605,1.8606,1.8626,1.8626,1.8627,1.8615,1.8615,1.8615,1.8625,0,1.8494,1.8512,1.8519,1.8534,1.8543,1.8548,1.8556,1.8565,1.8571,1.8579,1.8586,1.8595,1.8595,1.8598,1.8605,1.8611,1.8618,1.8611,1.8622,1.8622,1.8619,1.8629,1.8629,1.8638,1.8627,1.8627,1.8627,0,1.8506,1.8516,1.8532,1.8544,1.8548,1.8556,1.8567,1.8575,1.8585,1.8589,1.8597,1.86,1.8611,1.8608,1.8622,1.8617,1.8623,1.8627,1.8627,1.8628,1.8625,1.863,1.8641,1.8642,1.8629,1.8629,1.8629,0,1.8507,1.8525,1.8537,1.8542,1.8557,1.8562,1.8568,1.8578,1.8585,1.8594,1.8599,1.8609,1.8615,1.8623,1.8629,1.8627,1.8643,1.8641,1.8646,1.8645,1.8648,1.8648,1.866,1.8652,1.8652,1.8652,1.8652,0,1.8516,1.8525,1.8538,1.8545,1.8556,1.8564,1.8574,1.858,1.8589,1.8598,1.8603,1.861,1.8618,1.8627,1.8632,1.8643,1.8646,1.8649,1.865,1.8648,1.8648,1.8651,1.865,1.8653,1.8653,1.8652,1.8652,0,1.8519,1.8528,1.8541,1.8554,1.8558,1.8565,1.8576,1.8583,1.859,1.8601,1.8603,1.8613,1.8624,1.8631,1.8645,1.8648,1.866,1.8661,1.8657,1.8657,1.8662,1.8661,1.8676,1.8678,1.8669,1.867,1.867,0,1.8524,1.8531,1.8546,1.8552,1.8559,1.8568,1.8575,1.8584,1.8591,1.8603,1.8609,1.862,1.8629,1.8646,1.8654,1.8664,1.8665,1.867,1.8667,1.8665,1.8665,1.8664,1.8665,1.867,1.867,1.867,1.867,0,1.8531,1.8535,1.8545,1.8557,1.8565,1.8575,1.8584,1.8589,1.8599,1.8607,1.8618,1.8625,1.8639,1.865,1.8661,1.8668,1.867,1.8671,1.8673,1.8671,1.8668,1.8669,1.8657,1.8671,1.8671,1.8671,1.8671,1.8671,1.8535,1.8542,1.8553,1.8564,1.8573,1.8582,1.8589,1.8597,1.8607,1.8619,1.8624,1.8635,1.8646,1.8661,1.8668,1.8677,1.8676,1.8679,1.8679,1.868,1.8679,1.8667,1.8679,1.8679,1.8679,1.8679,1.8679,0,1.8542,1.855,1.856,1.8574,1.8583,1.8586,1.8597,1.8604,1.8614,1.8624,1.8633,1.8646,1.8657,1.8666,1.8677,1.8683,1.8684,1.8685,1.8685,1.8686,1.8679,1.8677,1.8684,1.8684,1.8684,1.8684,1.8684,1.8684,1.8547,1.8559,1.8565,1.8581,1.8589,1.8601,1.8607,1.8615,1.8623,1.8638,1.8647,1.8653,1.8663,1.8675,1.8685,1.8687,1.8691,1.8691,1.8694,1.8687,1.8687,1.8686,1.8684,1.8692,1.8692,1.87,1.87,1.8701]},{"header":{"parameterUnit":"m.s-1","parameterCategory":1,"la1":30.2991,"la2":30.254,"lo1":-89.0895,"lo2":-89.0444,"dy":0.0017,"dx":0.0017,"nx":28,"ny":28,"refTime":"2023-04-17T15:00:00:Z","depth":0,"parameterNumber":3,"parameterNumberName":"V-component_of_WINDS"},"data":[0,0,0,0,0,0,0,0,0,0,0,0,0,0,0,0,0,0,0,0,0,0,0,0,0,0,0,0,0,0,0,0,0,0,0,0,0,0,0,0,0,0,0,0,0,0,0,0,0,0,0,0,0,0,0,0,0,0,-4.1691,-4.1692,0,-4.1801,-4.1802,-4.1803,-4.174,-4.1736,-4.1733,-4.173,-4.1842,-4.1847,-4.1853,0,0,0,0,0,0,0,0,0,0,0,0,0,-4.1423,-4.1428,-4.1691,-4.1692,-4.1693,-4.1801,-4.1802,-4.1804,-4.174,-4.1736,-4.1733,-4.1729,-4.184,-4.1847,-4.1854,0,0,0,0,0,0,0,0,0,0,0,0,0,-4.1537,-4.143,-4.169,-4.1675,-4.1674,-4.18,-4.1802,-4.1804,-4.1741,-4.1736,-4.1732,-4.1727,-4.1837,-4.1846,-4.1855,-4.2002,0,0,-4.1881,-4.1885,0,0,0,0,0,0,0,0,-4.1531,-4.1547,-4.1676,-4.1676,-4.1676,-4.1752,-4.1749,-4.187,-4.1742,-4.1716,-4.173,-4.1725,-4.1815,-4.1826,-4.1856,-4.2007,-4.2012,-4.1882,-4.1887,-4.1891,-4.1894,0,0,0,0,0,0,0,-4.1523,-4.1542,-4.1734,-4.1678,-4.1678,-4.1661,-4.1672,-4.1771,-4.179,-4.1718,-4.1713,-4.1727,-4.1814,-4.1848,-4.1859,-4.2013,-4.1882,-4.189,-4.1895,-4.1899,-4.2289,-4.2294,0,0,0,0,0,0,-4.1516,-4.1536,-4.1731,-4.1737,-4.159,-4.167,-4.1682,-4.1732,-4.1789,-4.1793,-4.1731,-4.1724,-4.1835,-4.1848,-4.1862,-4.2038,-4.1891,-4.1899,-4.1904,-4.2284,-4.229,-4.2296,0,0,0,0,0,0,-4.1511,-4.1534,-4.1726,-4.1635,-4.1659,-4.168,-4.1736,-4.1737,-4.177,-4.1799,-4.1802,-4.1762,-4.1832,-4.185,-4.1967,-4.2041,-4.1903,-4.1911,-4.2278,-4.2286,-4.2293,-4.2391,0,0,0,0,0,0,-4.1503,-4.1533,-4.159,-4.1637,-4.1664,-4.1831,-4.1741,-4.1742,-4.1786,-4.1777,-4.1829,-4.1833,-4.183,-4.1955,-4.1976,-4.205,-4.1918,-4.2272,-4.2282,-4.2291,-4.2381,-4.2401,-4.2418,0,0,0,0,0,-4.1494,-4.1613,-4.1593,-4.1617,-4.1735,-4.1835,-4.185,-4.1845,-4.1792,-4.1849,-4.1867,-4.1832,-4.2029,-4.1967,-4.1991,-4.2069,-4.2267,-4.2279,-4.229,-4.2373,-4.2397,-4.2417,0,0,0,0,0,0,-4.1573,-4.1619,-4.1597,-4.1735,-4.1782,-4.1824,-4.1896,-4.187,-4.1933,-4.1922,-4.1912,-4.1924,-4.2047,-4.2069,-4.2,-4.2214,-4.214,-4.2157,-4.2195,-4.2218,-4.2236,-4.2228,-4.1925,0,0,0,0,0,-4.1606,-4.1684,-4.1719,-4.1837,-4.1862,-4.1875,-4.1918,-4.191,-4.1958,-4.1977,-4.2004,-4.2051,-4.2124,-4.2172,-4.2241,-4.2384,-4.2394,-4.2449,-4.2467,-4.2482,-4.2497,-4.2574,-4.2599,-4.2334,-4.2333,-4.2333,0,0,-4.1676,-4.171,-4.176,-4.1854,-4.1889,-4.1969,-4.1892,-4.198,-4.2039,-4.199,-4.2103,-4.2125,-4.2176,-4.2308,-4.2366,-4.233,-4.2572,-4.2497,-4.2509,-4.2515,-4.2588,-4.2613,-4.2635,-4.2341,-4.234,-4.2339,0,0,-4.1844,-4.1878,-4.198,-4.2017,-4.2071,-4.2079,-4.2103,-4.215,-4.2162,-4.2276,-4.224,-4.231,-4.2435,-4.2474,-4.251,-4.2691,-4.2661,-4.2714,-4.281,-4.2885,-4.2905,-4.2924,-4.2988,-4.3012,-4.2728,-4.2728,-4.2729,0,-4.1924,-4.2044,-4.2035,-4.2126,-4.2168,-4.2128,-4.223,-4.2266,-4.234,-4.237,-4.2328,-4.2484,-4.2516,-4.2655,-4.27,-4.273,-4.2757,-4.2708,-4.2903,-4.2922,-4.2939,-4.3,-4.3024,-4.2734,-4.2734,-4.2733,-4.2733,0,-4.2139,-4.2222,-4.2298,-4.2371,-4.2421,-4.2517,-4.2523,-4.2575,-4.2561,-4.2573,-4.2688,-4.2726,-4.2801,-4.2833,-4.2821,-4.297,-4.2946,-4.2904,-4.2829,-4.297,-4.3028,-4.3051,-4.2743,-4.2741,-4.2739,-4.2738,0,0,-4.236,-4.2426,-4.2454,-4.2487,-4.2543,-4.2607,-4.2701,-4.2775,-4.2819,-4.2871,-4.2949,-4.3056,-4.3018,-4.3059,-4.305,-4.3116,-4.3257,-4.3066,-4.3067,-4.31,-4.3423,-4.3455,-4.3482,-4.3237,-4.3241,-4.3245,-4.3419,0,-4.2532,-4.2696,-4.2691,-4.2845,-4.2921,-4.2883,-4.2965,-4.3008,-4.3021,-4.3088,-4.3102,-4.3178,-4.3121,-4.3146,-4.3209,-4.3227,-4.3322,-4.3214,-4.3309,-4.3312,-4.3298,-4.3512,-4.3546,-4.3708,-4.3441,-4.3445,-4.3448,0,-4.2754,-4.2814,-4.2975,-4.3019,-4.3051,-4.3125,-4.3192,-4.3256,-4.3304,-4.3308,-4.3354,-4.3335,-4.3429,-4.3352,-4.3481,-4.3408,-4.3446,-4.3461,-4.3467,-4.3476,-4.3389,-4.3527,-4.376,-4.3785,-4.3483,-4.348,-4.3478,0,-4.2899,-4.302,-4.3132,-4.316,-4.3215,-4.3268,-4.3293,-4.3336,-4.338,-4.3438,-4.3467,-4.3535,-4.3572,-4.3625,-4.3625,-4.3568,-4.3756,-4.3678,-4.3762,-4.3762,-4.3803,-4.3801,-4.4046,-4.3828,-4.3828,-4.3827,-4.3827,0,-4.3092,-4.3192,-4.3198,-4.3267,-4.3377,-4.3369,-4.3479,-4.3499,-4.3537,-4.3609,-4.3579,-4.3647,-4.3642,-4.371,-4.371,-4.3817,-4.3834,-4.384,-4.3839,-4.3843,-4.3843,-4.3868,-4.3857,-4.3834,-4.3832,-4.3831,-4.383,0,-4.3273,-4.3281,-4.34,-4.3442,-4.3455,-4.3535,-4.357,-4.3635,-4.3645,-4.3736,-4.3757,-4.3773,-4.3852,-4.3856,-4.3947,-4.3947,-4.4077,-4.4063,-4.4061,-4.4058,-4.4142,-4.4134,-4.4413,-4.4449,-4.4207,-4.4209,-4.4211,0,-4.3396,-4.3472,-4.3522,-4.3567,-4.3596,-4.367,-4.3715,-4.371,-4.3758,-4.3818,-4.3875,-4.3951,-4.4011,-4.4138,-4.4158,-4.4227,-4.4214,-4.4307,-4.4224,-4.4226,-4.4216,-4.4212,-4.4219,-4.4324,-4.4326,-4.4328,-4.433,0,-4.3612,-4.3612,-4.3678,-4.3746,-4.3801,-4.3854,-4.3903,-4.3943,-4.3943,-4.3998,-4.4079,-4.4125,-4.4218,-4.4293,-4.436,-4.4385,-4.4358,-4.4356,-4.4379,-4.4384,-4.438,-4.4383,-4.4105,-4.435,-4.4348,-4.4346,-4.4345,-4.4344,-4.3768,-4.3833,-4.3879,-4.3953,-4.399,-4.4036,-4.4099,-4.4117,-4.4184,-4.4259,-4.4252,-4.4341,-4.4385,-4.4472,-4.4503,-4.4571,-4.454,-4.4573,-4.4581,-4.459,-4.4599,-4.4369,-4.4583,-4.4583,-4.4582,-4.4582,-4.4581,0,-4.3983,-4.401,-4.4078,-4.4148,-4.4207,-4.4176,-4.4229,-4.428,-4.4359,-4.4403,-4.4463,-4.4554,-4.4627,-4.4652,-4.4722,-4.4773,-4.4762,-4.4791,-4.4788,-4.4794,-4.4623,-4.4596,-4.4799,-4.4799,-4.4798,-4.4798,-4.4798,-4.4798,-4.4101,-4.4211,-4.4216,-4.4343,-4.4368,-4.4456,-4.4488,-4.4531,-4.4566,-4.467,-4.473,-4.4746,-4.4782,-4.4855,-4.492,-4.4925,-4.4952,-4.4987,-4.4987,-4.4828,-4.4806,-4.4785,-4.476,-4.4993,-4.4993,-4.5152,-4.5153,-4.5155]}]]